www.pogodaiklimat.ru

Погода и климат >> Архив погоды >> Норвегия >> Маяк Krakenes


ПОГОДА на Маяке Krakenes

  • Прогноз погоды на Маяке Krakenes
  • Монитор погоды на Маяке Krakenes

АРХИВ ПОГОДЫ на Маяке Krakenes

Время (UTC), дата Ветер
(напр.,м/с)
 
Видим.   Явления Облачность Т
(С)
Тd
(С)
f
(%)
Тe
(С)
Тes
(С)
Комфортность P
(гПа)
Po
(гПа)
Тmin
(С)
Tmax
(С)
R
(мм)
R24
(мм)
S
(см)
04 13.09 ЮЗ 14
{21}
н/о н/о +10.6 +9.5 93 +6 +6 1013.8 1009.0
05 13.09 З 15
{19}
н/о н/о +11.1 +9.4 89 +6 +6 1013.6 1008.8
06 13.09 ЮЗ 14
{26}
н/о н/о +11.3 +7.8 79 +7 +7 1014.4 1009.6 +8.9 +12.2
07 13.09 З 14
{20}
н/о н/о +10.9 +6.7 75 +6 +6 1015.0 1010.2
08 13.09 ЮЗ 10
{19}
н/о н/о +9.9 +9.3 96 +5 +5 1016.5 1011.6
09 13.09 З 18
{21}
н/о н/о +9.4 +8.2 92 +3 +3 1016.0 1011.1
10 13.09 ЮЗ 13 н/о н/о +11.5 +8.2 80 +7 +7 1016.6 1011.8
11 13.09 н/о н/о
12 13.09 ЮЗ 15
{24}
н/о н/о +10.7 +10.4 98 +5 +5 1017.3 1012.5
13 13.09 ЮЗ 16 н/о н/о +11.2 +8.8 85 +6 +6 1016.7 1011.9
14 13.09 ЮЗ 16 н/о н/о +10.6 +9.2 91 +5 +5 1017.2 1012.4
15 13.09 н/о н/о
16 13.09 ЮЗ 17 н/о н/о +11.5 +7.4 76 +7 +7 1017.9 1013.1
17 13.09 З 16 н/о н/о +10.8 +10.6 99 +5 +5 1018.4 1013.6
18 13.09 З 17
{26}
н/о н/о +11.5 +7.4 76 +7 +7 1019.6 1014.8 +12.0
19 13.09 ЮЗ 13 н/о н/о +10.1 +10.0 99 +5 +5 1020.7 1015.8
20 13.09 ЮЗ 17 н/о н/о +11.6 +8.6 82 +7 +7 1019.4 1014.6
21 13.09 З 18 н/о н/о +9.7 +9.1 96 +4 +4 1019.7 1014.8
22 13.09 ЮЗ 18 н/о н/о +11.2 +8.6 84 +6 +6 1019.7 1014.9
23 13.09 ЮЗ 17 н/о н/о +11.6 +10.0 90 +7 +7 1019.5 1014.7
00 14.09 З 16
{28}
н/о н/о +10.6 +10.4 99 +5 +5 1021.0 1016.1
01 14.09 З 16
{22}
н/о н/о +11.5 +7.8 78 +7 +7 1021.0 1016.2
02 14.09 З 17
{26}
н/о н/о +10.7 +8.8 88 +5 +5 1020.4 1015.5
03 14.09 ЮЗ 20 н/о н/о +11.6 +8.8 83 +6 +6 1019.4 1014.6
04 14.09 ЮЗ 17
{22}
н/о н/о +11.5 +9.8 89 +6 +6 1019.5 1014.7
05 14.09 ЮЗ 15
{22}
н/о н/о +11.4 +9.3 87 +7 +7 1019.7 1014.9
06 14.09 ЮЗ 16
{26}
н/о н/о +11.7 +9.8 88 +7 +7 1019.5 1014.7 +7.9 +11.7
07 14.09 ЮЗ 17 н/о н/о +11.8 +8.7 81 +7 +7 1018.7 1013.9
08 14.09 ЮЗ 18
{20}
н/о н/о +11.5 +7.4 76 +6 +6 1018.0 1013.2
09 14.09 Ю 17
{21}
н/о н/о +11.6 +9.5 87 +7 +7 1017.4 1012.6
10 14.09 Ю 16
{20}
н/о н/о +11.9 +10.3 90 +7 +7 1016.7 1011.9
11 14.09 Ю 18
{24}
н/о н/о +11.2 +11.1 99 +6 +6 1014.7 1009.9
12 14.09 Ю 20
{24}
н/о н/о +10.9 +10.8 99 +5 +5 1013.1 1008.3
13 14.09 Ю 16
{26}
н/о н/о +10.9 +10.6 98 +6 +6 1010.5 1005.7
14 14.09 Ю 25
{30}
н/о н/о +11.2 +11.1 99 +5 +5 1006.7 1001.9
15 14.09 Ю 18
{28}
н/о н/о +11.2 +11.1 99 +6 +6 1004.7 999.9
16 14.09 Ю 23
{30}
н/о н/о +11.9 +11.8 99 +6 +6 1001.3 996.6
17 14.09 Ю 29
{35}
н/о н/о +12.7 +12.6 99 +7 +7 997.3 992.6
18 14.09 ЮЗ 28
{35}
н/о н/о +13.0 +12.9 99 +8 +8 996.1 991.4 +10.7 +13.2
19 14.09 ЮЗ 27
{33}
н/о н/о +13.4 +13.3 99 +8 +8 995.6 990.9
20 14.09 ЮЗ 26
{33}
н/о н/о +12.7 +10.6 87 +7 +7 994.4 989.7
21 14.09 ЮЗ 25
{31}
н/о н/о +12.7 +9.9 83 +8 +8 995.3 990.6
22 14.09 ЮЗ 24
{33}
н/о н/о +12.7 +7.8 72 +8 +8 994.4 989.7
23 14.09 ЮЗ 26
{33}
н/о н/о +12.5 +7.0 69 +7 +7 991.9 987.2
00 15.09 ЮЗ 25
{33}
н/о н/о +11.4 +10.0 91 +5 +5 992.8 988.1
01 15.09 ЮЗ 28
{38}
н/о н/о +11.7 +5.1 64 +6 +6 990.5 985.8
02 15.09 ЮЗ 28
{34}
н/о н/о +11.6 +6.5 71 +6 +6 989.4 984.7
03 15.09 ЮЗ 29
{37}
н/о н/о +11.0 +8.9 87 +5 +5 988.6 983.9
04 15.09 ЮЗ 30
{38}
н/о н/о +10.3 +9.4 94 +3 +3 986.2 981.5
05 15.09 ЮЗ 28
{39}
н/о н/о +10.4 +10.3 99 +4 +4 985.8 981.1
06 15.09 ЮЗ 30
{39}
н/о н/о +9.9 +9.8 99 +3 +3 984.8 980.1 +8.9 +13.5
07 15.09 ЮЗ 26
{34}
н/о н/о +10.7 +10.6 99 +4 +4 986.2 981.5
08 15.09 ЮЗ 24
{32}
н/о н/о +10.8 +10.7 99 +5 +5 985.7 981.0
09 15.09 З 24
{30}
н/о н/о +10.0 +9.9 99 +3 +3 987.3 982.6
10 15.09 З 21
{28}
н/о н/о +11.0 +10.5 97 +5 +5 989.3 984.6
11 15.09 З 20
{27}
н/о н/о +11.4 +10.3 93 +6 +6 991.2 986.5
12 15.09 З 20
{34}
н/о н/о +11.1 +10.5 96 +5 +5 992.0 987.3
13 15.09 З 20
{24}
н/о н/о +11.0 +10.5 97 +5 +5 994.4 989.7
14 15.09 З 22
{28}
н/о н/о +10.4 +10.3 99 +4 +4 993.7 989.0
15 15.09 З 19
{27}
н/о н/о +11.0 +10.9 99 +5 +5 997.3 992.6
16 15.09 З 19
{26}
н/о н/о +10.3 +10.2 99 +4 +4 999.3 994.5
17 15.09 З 22
{27}
н/о н/о +10.1 +10.0 99 +4 +4 1000.3 995.5
18 15.09 З 21
{28}
н/о н/о +10.7 +9.5 92 +5 +5 1002.0 997.2 +9.1 +11.4
19 15.09 З 20
{26}
н/о н/о +10.3 +7.7 84 +4 +4 1003.2 998.4
20 15.09 З 19
{26}
н/о н/о +10.3 +6.1 75 +5 +5 1004.2 999.4
21 15.09 З 16
{21}
н/о н/о +10.2 +5.6 73 +5 +5 1005.9 1001.1
22 15.09 З 16
{22}
н/о н/о +9.8 +7.2 84 +4 +4 1006.4 1001.6
23 15.09 З 16
{21}
н/о н/о +9.4 +7.5 88 +4 +4 1007.1 1002.3
00 16.09 З 11
{26}
н/о н/о +9.4 +9.3 99 +4 +4 1007.8 1003.0
01 16.09 З 16
{19}
н/о н/о +9.8 +4.4 69 +4 +4 1007.0 1002.2
02 16.09 З 14
{18}
н/о н/о +9.6 +4.4 70 +4 +4 1007.6 1002.8
03 16.09 З 15
{19}
н/о н/о +9.3 +5.5 77 +4 +4 1007.8 1003.0
04 16.09 З 11
{17}
н/о н/о +9.5 +3.3 65 +5 +5 1008.6 1003.8
05 16.09 З 9
{14}
н/о н/о +9.0 +5.0 76 +4 +4 1008.9 1004.1
06 16.09 З 10
{19}
н/о н/о +9.3 +3.9 69 +5 +5 1008.3 1003.5 +8.8 +10.7
07 16.09 З 11
{13}
н/о н/о +9.9 +2.3 59 +6 +6 1008.2 1003.4
08 16.09 ЮЗ 7
{13}
н/о н/о +9.4 +7.9 90 +5 +5 1008.3 1003.5
09 16.09 З 4
{15}
н/о н/о +8.0 +7.9 99 +4 +4 1008.1 1003.3
10 16.09 ЮЗ 13
{18}
н/о н/о +10.2 +7.6 84 +5 +5 1006.6 1001.8
11 16.09 ЮЗ 14
{17}
н/о н/о +10.6 +7.7 82 +6 +6 1006.1 1001.3
12 16.09 З 14
{22}
н/о н/о +8.5 +8.4 99 +2 +2 1006.4 1001.6
13 16.09 ЮЗ 13
{16}
н/о н/о +9.7 +6.6 81 +5 +5 1005.8 1001.0
14 16.09 З 11
{17}
н/о н/о +10.6 +4.7 67 +6 +6 1006.3 1001.5
15 16.09 З 11
{15}
н/о н/о +10.3 +4.0 65 +6 +6 1005.8 1001.0
16 16.09 З 12
{15}
н/о н/о +10.2 +4.2 66 +6 +6 1005.4 1000.6
17 16.09 ЮЗ 20
{23}
н/о н/о +7.2 +7.1 99 -0 -0 1003.9 999.1
18 16.09 Ю 9
{23}
н/о н/о +8.4 +5.7 83 +4 +4 1004.8 1000.0 +7.0 +10.8
19 16.09 З 12
{24}
н/о н/о +7.2 +7.1 99 +1 +1 1005.1 1000.3
20 16.09 З 12
{15}
н/о н/о +7.8 +4.9 82 +2 +2 1004.5 999.7
21 16.09 З 11
{16}
н/о н/о +9.0 +3.0 66 +4 +4 1004.6 999.8
22 16.09 З 7
{21}
н/о н/о +8.2 +0.7 59 +4 +4 1004.5 999.7
23 16.09 З 10
{14}
н/о н/о +8.5 +1.2 60 +4 +4 1004.2 999.4
00 17.09 З 8
{24}
н/о н/о +8.2 +3.5 72 +4 +4 1004.1 999.3
01 17.09 СЗ 6
{13}
н/о н/о +7.8 +3.7 75 +4 +4 1004.3 999.5
02 17.09 З 5
{8}
н/о н/о +7.7 +2.0 67 +4 +4 1004.3 999.5
03 17.09 СЗ 4
{7}
н/о н/о +7.7 +0.5 60 +5 +5 1004.8 1000.0
04 17.09 СВ 4
{11}
н/о н/о +6.2 +3.2 81 +2 +2 1005.3 1000.4
05 17.09 СЗ 6
{9}
н/о н/о +7.6 +4.9 83 +3 +3 1005.8 1001.0
06 17.09 СЗ 4
{13}
н/о н/о +7.5 +5.0 84 +4 +4 1006.8 1002.0 +5.9 +9.5
07 17.09 СЗ 3
{6}
н/о н/о +8.4 +5.2 80 +6 +6 1007.8 1003.0
08 17.09 ЮЗ 5
{7}
н/о н/о +8.0 +7.3 95 +4 +4 1008.5 1003.7
09 17.09 С 6
{12}
н/о н/о +7.7 +7.6 99 +3 +3 1010.0 1005.1
10 17.09 С 16
{19}
н/о н/о +8.8 +8.2 96 +3 +3 1010.4 1005.6
11 17.09 С 15
{19}
н/о н/о +9.6 +6.2 79 +4 +4 1011.6 1006.8
12 17.09 С 12
{19}
н/о н/о +10.0 +6.2 77 +5 +5 1012.5 1007.7
13 17.09 СЗ 14
{18}
н/о н/о +10.0 +8.3 89 +5 +5 1013.5 1008.7
14 17.09 СЗ 14
{18}
н/о н/о +10.1 +7.5 84 +5 +5 1014.6 1009.8
15 17.09 СЗ 12
{16}
н/о н/о +10.0 +8.1 88 +5 +5 1015.4 1010.6
16 17.09 СЗ 12
{16}
н/о н/о +9.6 +6.9 83 +5 +5 1015.9 1011.0
17 17.09 СЗ 12
{14}
н/о н/о +9.7 +7.0 83 +5 +5 1016.3 1011.4
18 17.09 СЗ 11
{18}
н/о н/о +9.7 +7.3 85 +5 +5 1016.7 1011.8 +7.3 +10.4
19 17.09 СЗ 11
{13}
н/о н/о +9.1 +9.0 99 +4 +4 1016.9 1012.0
20 17.09 З 11
{14}
н/о н/о +8.9 +8.8 99 +4 +4 1017.2 1012.3
21 17.09 СЗ 9
{15}
н/о н/о +9.0 +8.9 99 +4 +4 1017.4 1012.5
22 17.09 СЗ 7
{12}
н/о н/о +8.5 +8.4 99 +4 +4 1017.5 1012.6
23 17.09 С 11
{14}
н/о н/о +9.5 +8.6 94 +4 +4 1017.2 1012.3
00 18.09
{16}
н/о н/о +9.5 +6.4 81 1017.8 1012.9
01 18.09 С 10
{14}
н/о н/о +8.7 +8.6 99 +3 +3 1018.3 1013.4
02 18.09 СЗ 12
{15}
н/о н/о +9.1 +9.0 99 +4 +4 1019.0 1014.1
03 18.09 С 10
{15}
н/о н/о +9.4 +5.6 77 +5 +5 1019.5 1014.6
04 18.09 С 8
{13}
н/о н/о +9.1 +6.9 86 +5 +5 1020.2 1015.3
05 18.09 С 9
{12}
н/о н/о +9.5 +4.5 71 +5 +5 1020.7 1015.8
06 18.09 СЗ 8
{15}
н/о н/о +9.4 +4.4 71 +5 +5 1021.2 1016.3 +8.3 +9.7
07 18.09 С 10
{14}
н/о н/о +9.0 +6.6 85 +4 +4 1021.6 1016.7
08 18.09 СЗ 8
{15}
н/о н/о +9.3 +4.7 73 +5 +5 1022.1 1017.2
09 18.09 СЗ 9
{12}
н/о н/о +9.6 +4.2 69 +5 +5 1022.7 1017.8
10 18.09 СЗ 9
{14}
н/о н/о +9.5 +5.1 74 +5 +5 1023.2 1018.3
11 18.09 СЗ 8
{13}
н/о н/о +9.6 +3.8 67 +6 +6 1023.8 1018.9
12 18.09 СЗ 9
{15}
н/о н/о +9.6 +5.8 77 +5 +5 1024.2 1019.3
13 18.09 СЗ 7
{10}
н/о н/о +10.0 +3.1 62 +7 +7 1024.5 1019.6
14 18.09 СЗ 8
{11}
н/о н/о +10.1 +3.8 65 +6 +6 1024.8 1019.9
15 18.09 СЗ 10
{12}
н/о н/о +9.4 +7.5 88 +5 +5 1025.0 1020.1
16 18.09 СЗ 7
{11}
н/о н/о +9.5 +8.6 94 +5 +5 1025.2 1020.3
17 18.09 СЗ 7
{10}
н/о н/о +9.5 +7.8 89 +5 +5 1025.3 1020.4
18 18.09 С 7
{12}
н/о н/о +9.1 +8.7 97 +5 +5 1025.6 1020.7 +8.1 +11.0
19 18.09 С 7
{11}
н/о н/о +9.2 +6.8 85 +5 +5 1026.0 1021.1
20 18.09 С 7
{9}
н/о н/о +9.5 +6.9 84 +6 +6 1026.2 1021.3
21 18.09 СВ 8
{10}
н/о н/о +9.3 +6.6 83 +5 +5 1026.2 1021.3
22 18.09 С 4
{11}
н/о н/о +9.3 +7.1 86 +6 +6 1026.6 1021.7
23 18.09 С 4
{9}
н/о н/о +9.1 +5.8 80 +6 +6 1026.8 1021.9
00 19.09 С 6
{11}
н/о н/о +8.5 +7.4 93 +4 +4 1027.1 1022.2
01 19.09 В 2
{6}
н/о н/о +8.6 +5.0 78 +7 +7 1027.0 1022.1
02 19.09 СВ 1
{4}
н/о н/о +8.3 +6.1 86 +8 +8 1027.0 1022.1
03 19.09 В 2
{3}
н/о н/о +8.7 +5.6 81 +7 +7 1026.8 1021.9
04 19.09 Ю 1
{2}
н/о н/о +8.7 +7.0 89 +8 +8 1026.8 1021.9
05 19.09 Ю 4
{5}
н/о н/о +8.7 +6.7 87 +6 +6 1026.4 1021.5
06 19.09 ЮВ 2
{6}
н/о н/о +8.6 +6.4 86 +7 +7 1026.6 1021.7 +8.2 +9.6
07 19.09 Ю 4
{10}
н/о н/о +8.1 +8.0 99 +5 +5 1026.6 1021.7
08 19.09 Ю 5
{7}
н/о н/о +8.9 +4.7 75 +6 +6 1026.4 1021.5
09 19.09 Ю 5
{9}
н/о н/о +9.0 +4.6 74 +6 +6 1026.6 1021.7
10 19.09 Ю 7
{10}
н/о н/о +9.1 +5.3 77 +5 +5 1026.0 1021.1
11 19.09 Ю 7
{12}
н/о н/о +8.5 +7.3 92 +4 +4 1025.8 1020.9
12 19.09 Ю 12
{13}
н/о н/о +8.3 +8.2 99 +2 +2 1025.3 1020.4
13 19.09 Ю 15
{17}
н/о н/о +8.3 +8.2 99 +2 +2 1024.2 1019.3
14 19.09 Ю 15
{19}
н/о н/о +8.2 +7.9 98 +2 +2 1023.6 1018.7
15 19.09 Ю 15
{18}
н/о н/о +8.0 +6.6 91 +2 +2 1022.9 1018.0
16 19.09 Ю 9
{18}
н/о н/о +8.2 +7.3 94 +3 +3 1022.8 1017.9
17 19.09 Ю 10
{14}
н/о н/о +8.8 +7.3 90 +4 +4 1021.4 1016.5
18 19.09 Ю 15
{19}
н/о н/о +9.1 +7.1 87 +3 +3 1019.9 1015.0 +7.9 +9.3
19 19.09 Ю 16
{22}
н/о н/о +10.0 +8.8 92 +4 +4 1019.5 1014.6
20 19.09 Ю 18
{21}
н/о н/о +10.4 +9.5 94 +5 +5 1018.7 1013.8
21 19.09 Ю 18
{22}
н/о н/о +10.8 +10.3 97 +5 +5 1018.5 1013.7
22 19.09 Ю 18
{23}
н/о н/о +10.9 +10.8 99 +5 +5 1018.1 1013.3
23 19.09 Ю 18
{21}
н/о н/о +10.8 +10.7 99 +5 +5 1018.3 1013.5
00 20.09 Ю 18
{23}
н/о н/о +10.4 +10.3 99 +5 +5 1019.0 1014.1
01 20.09 Ю 17
{19}
н/о н/о +10.6 +10.5 99 +5 +5 1019.1 1014.2
02 20.09 ЮЗ 13
{19}
н/о н/о +11.6 +11.5 99 +7 +7 1019.2 1014.4

 

Местоположение метеостанции Маяк Krakenes (Норвегия): широта 62.03 долгота 4.99 высота над уровнем моря 75 м.

В архиве по умолчанию представлена погода на Маяке Krakenes за последнюю неделю. Архивные данные за месяц целиком и за предыдущие месяцы, начиная с января 2011 года, Вы можете получить, выбрав интересующий диапазон дат из раскрывающегося списка и нажав кнопку "Ввод!".


*Определитесь, кто Вы:
робот инопланетянин человек

Внимание! Время в таблицах - всемирное. Для получения местного времени необходимо прибавить поправку, которая равна 1 ч.

Смотрите также архив погоды в соседних городах и на ближайших метеорологических станциях:

Погода в Берген аэропорту (Норвегия) (31 км)
Погода в Фиске (Норвегия) (32 км)
Погода на Маяке Svinoy (Норвегия) (36 км)
Погода в Флоро аэропорту (Норвегия) (50 км)
Погода на Маяке Ytteroyane (Норвегия) (54 км)
Погода в Аэропорту Орста-Волда (Норвегия) (59 км)
Погода в Сандан аэропорту (Норвегия) (62 км)
Погода во Флурё (Норвегия) (79 км)
Погода в Олесунне (Норвегия) (80 км)
Погода во Флурё аэропорту (Норвегия) (82 км)

Пояснения к столбцам:

Ветер - указаны скорость ветра в м/с - средняя за 10 мин, порывы в срок и между сроками (в фигурных скобках) и направление, откуда дует ветер: С - северный, СВ - северо-восточный, В - восточный, ЮВ - юго-восточный, Ю - южный, ЮЗ - юго-западный, З - западный, СЗ - северо-западный.
Видимость - горизонтальная дальность видимости в метрах или километрах. При видимости от 1 до 10 км при отсутствии осадков обычно наблюдается дымка, при ухудшении видимости до 1 км и менее - туман. В сухую погоду видимость может ухудшаться дымом, пылью или мглою.
Явления - указаны атмосферные явления, наблюдавшиеся в срок или в последний час перед сроком; фигурными скобками обозначены явления, наблюдавшиеся между сроками (за 1-3 часа до срока); квадратными скобками обозначены град или гололедные отложения с указанием их диаметра в мм.
Облачность - указаны через наклонную черту общая и нижняя облачность в баллах и высота нижней границы облаков в метрах; квадратными скобками обозначены формы облаков: Ci - перистые, Cs - перисто-слоистые, Cc - перисто-кучевые, Ac - высококучевые, As - высокослоистые, Sc - слоисто-кучевые, Ns - слоисто-дождевые, Cu - кучевые, Cb - кучево-дождевые. Подробнее классификацию облаков см. в Атласе облаков (PDF).
T - Температура воздуха - температура, измеренная на высоте 2 м над землей.
Td - Температура точки росы - температура, при понижении до которой содержащийся в воздухе водяной пар достигнет насыщения.
f - Относительная влажность воздуха - влажноcть воздуха, измеренная на высоте 2 м над землей.
Te - Эффективная температура - температура, которую ощущает одетый по сезону человек в тени. Характеристика душности погоды. При расчете учитывается влияние влажности воздуха и скорости ветра на теплоощущения человека.
Tes - Эффективная температура на солнце - температура, которую ощущает человек, с поправкой на солнечный нагрев. Характеристика знойности погоды. Зависит от высоты солнца над горизонтом, облачности и скорости ветра. Ночью, в пасмурную погоду, а также при ветре 12 м/с и более поправка равна нулю.
P - Атмосферное давление - приведенное к уровню моря атмосферное давление.
Po - Атмосферное давление - измеренное на уровне метеостанции атмосферное давление.
Tmin - Минимальная температура - минимум температуры воздуха на высоте 2 м над землей.
Tmax - Максимальная температура - максимум температуры воздуха на высоте 2 м над землей.
R - Количество осадков - Количество выпавших осадков за период времени, мм. При наведении курсора мыши на число - период времени, за который выпало указанное количество осадков.
R24 - Количество осадков - Количество выпавших осадков за 24 часа, мм.
S - Снежный покров - Высота снежного покрова, см. При наведении курсора мыши на число - состояние снежного покрова и степень покрытия местности в баллах.